| time (UTC) | temp C | wind direction | speed KPH | gust KPH | rain 1hr cm | rain 24hr cm | rain mn cm | humidity % | barometer mb |
| 20260505021025 | 23 | 250 | 6.4 | 17.7 | 0.00 | 0.00 | 0.00 | 37 | 1009.2 |
| 20260505020526 | 24 | 232 | 4.8 | 12.9 | 0.00 | 0.00 | 0.00 | 37 | 1009.1 |
| 20260505020040 | 24 | 209 | 6.4 | 12.9 | 0.00 | 0.00 | 0.00 | 36 | 1008.9 |
| 20260505015525 | 24 | 271 | 4.8 | 11.3 | 0.00 | 0.00 | 0.00 | 36 | 1009.0 |
| 20260505015025 | 24 | 243 | 3.2 | 11.3 | 0.00 | 0.00 | 0.00 | 36 | 1008.8 |
| 20260505014540 | 24 | 196 | 3.2 | 11.3 | 0.00 | 0.00 | 0.00 | 36 | 1008.7 |
| 20260505014024 | 24 | 246 | 4.8 | 11.3 | 0.00 | 0.00 | 0.00 | 36 | 1008.6 |
| 20260505013524 | 24 | 209 | 1.6 | 9.7 | 0.00 | 0.00 | 0.00 | 36 | 1008.6 |
| 20260505013039 | 24 | 298 | 3.2 | 11.3 | 0.00 | 0.00 | 0.00 | 36 | 1008.6 |
| 20260505012524 | 24 | 227 | 3.2 | 11.3 | 0.00 | 0.00 | 0.00 | 36 | 1008.8 |
| 20260505012024 | 25 | 215 | 3.2 | 9.7 | 0.00 | 0.00 | 0.00 | 36 | 1008.7 |
| 20260505011548 | 25 | 284 | 1.6 | 11.3 | 0.00 | 0.00 | 0.00 | 35 | 1008.7 |
| 20260505011027 | 25 | 279 | 3.2 | 11.3 | 0.00 | 0.00 | 0.00 | 35 | 1008.8 |
| 20260505010525 | 25 | 265 | 1.6 | 12.9 | 0.00 | 0.00 | 0.00 | 36 | 1008.8 |
| 20260505005525 | 25 | 274 | 4.8 | 12.9 | 0.00 | 0.00 | 0.00 | 36 | 1008.8 |
| 20260505005026 | 25 | 281 | 3.2 | 9.7 | 0.00 | 0.00 | 0.00 | 37 | 1008.7 |
| 20260505004540 | 25 | 270 | 3.2 | 9.7 | 0.00 | 0.00 | 0.00 | 36 | 1008.8 |
| 20260505004026 | 25 | 204 | 3.2 | 9.7 | 0.00 | 0.00 | 0.00 | 35 | 1008.7 |
| 20260505003524 | 25 | 232 | 3.2 | 9.7 | 0.00 | 0.00 | 0.00 | 35 | 1008.7 |
| 20260505003043 | 25 | 301 | 3.2 | 8.0 | 0.00 | 0.00 | 0.00 | 36 | 1008.7 |
| 20260505002524 | 25 | 322 | 3.2 | 12.9 | 0.00 | 0.00 | 0.00 | 36 | 1008.8 |
| 20260505002024 | 25 | 285 | 1.6 | 12.9 | 0.00 | 0.00 | 0.00 | 36 | 1008.7 |
| 20260505001539 | 25 | 268 | 6.4 | 12.9 | 0.00 | 0.00 | 0.00 | 36 | 1008.8 |
| 20260505001024 | 25 | 342 | 4.8 | 12.9 | 0.00 | 0.00 | 0.00 | 36 | 1008.8 |
| 20260505000525 | 25 | 292 | 3.2 | 16.1 | 0.00 | 0.00 | 0.00 | 36 | 1008.9 |
| 20260505000048 | 25 | 261 | 8.0 | 16.1 | 0.00 | 0.00 | 0.00 | 36 | 1009.1 |
| 20260504235526 | 25 | 315 | 6.4 | 14.5 | 0.00 | 0.00 | 0.00 | 36 | 1009.0 |
| 20260504235025 | 25 | 299 | 6.4 | 16.1 | 0.00 | 0.00 | 0.00 | 36 | 1009.0 |
| 20260504234543 | 25 | 269 | 6.4 | 16.1 | 0.00 | 0.00 | 0.00 | 36 | 1009.1 |
| 20260504234026 | 25 | 286 | 6.4 | 14.5 | 0.00 | 0.00 | 0.00 | 36 | 1009.2 |
| 20260504233525 | 25 | 301 | 6.4 | 14.5 | 0.00 | 0.00 | 0.00 | 36 | 1009.2 |
| 20260504233040 | 25 | 247 | 4.8 | 14.5 | 0.00 | 0.00 | 0.00 | 36 | 1009.1 |
| 20260504232550 | 25 | 300 | 6.4 | 12.9 | 0.00 | 0.00 | 0.00 | 37 | 1008.9 |
| 20260504232024 | 25 | 289 | 4.8 | 12.9 | 0.00 | 0.00 | 0.00 | 37 | 1008.8 |
| 20260504231544 | 25 | 289 | 1.6 | 9.7 | 0.00 | 0.00 | 0.00 | 36 | 1008.8 |
| 20260504231024 | 25 | 266 | 3.2 | 16.1 | 0.00 | 0.00 | 0.00 | 36 | 1008.9 |
| 20260504230524 | 25 | 269 | 6.4 | 16.1 | 0.00 | 0.00 | 0.00 | 36 | 1009.0 |
| 20260504230044 | 25 | 253 | 4.8 | 12.9 | 0.00 | 0.00 | 0.00 | 36 | 1009.0 |
| 20260504225525 | 25 | 288 | 4.8 | 17.7 | 0.00 | 0.00 | 0.00 | 37 | 1009.1 |
| 20260504225024 | 25 | 267 | 6.4 | 17.7 | 0.00 | 0.00 | 0.00 | 37 | 1009.2 |
| 20260504224538 | 25 | 285 | 8.0 | 17.7 | 0.00 | 0.00 | 0.00 | 37 | 1009.2 |
| 20260504224024 | 25 | 292 | 11.3 | 17.7 | 0.00 | 0.00 | 0.00 | 37 | 1009.4 |
| 20260504223525 | 25 | 302 | 6.4 | 14.5 | 0.00 | 0.00 | 0.00 | 37 | 1009.4 |
| 20260504223050 | 25 | 284 | 8.0 | 14.5 | 0.00 | 0.00 | 0.00 | 37 | 1009.3 |
| 20260504222523 | 25 | 294 | 4.8 | 19.3 | 0.00 | 0.00 | 0.00 | 37 | 1009.3 |
| 20260504222024 | 25 | 213 | 8.0 | 19.3 | 0.00 | 0.00 | 0.00 | 38 | 1009.1 |
| 20260504221554 | 25 | 234 | 4.8 | 20.9 | 0.00 | 0.00 | 0.00 | 39 | 1009.1 |
| 20260504221025 | 25 | 171 | 6.4 | 20.9 | 0.00 | 0.00 | 0.00 | 38 | 1009.1 |
| 20260504220528 | 25 | 214 | 9.7 | 20.9 | 0.00 | 0.00 | 0.00 | 38 | 1009.3 |
| 20260504220042 | 25 | 215 | 6.4 | 16.1 | 0.00 | 0.00 | 0.00 | 38 | 1009.6 |
| 20260504215525 | 25 | 219 | 6.4 | 16.1 | 0.00 | 0.00 | 0.00 | 38 | 1009.6 |
| 20260504215024 | 25 | 227 | 3.2 | 16.1 | 0.00 | 0.00 | 0.00 | 38 | 1009.8 |
| 20260504214539 | 25 | 236 | 6.4 | 16.1 | 0.00 | 0.00 | 0.00 | 37 | 1009.8 |
| 20260504214024 | 25 | 272 | 4.8 | 14.5 | 0.00 | 0.00 | 0.00 | 37 | 1010.0 |
| 20260504213524 | 25 | 229 | 4.8 | 16.1 | 0.00 | 0.00 | 0.00 | 38 | 1010.3 |
| 20260504213059 | 25 | 219 | 4.8 | 16.1 | 0.00 | 0.00 | 0.00 | 37 | 1010.5 |
| 20260504212524 | 25 | 241 | 9.7 | 16.1 | 0.00 | 0.00 | 0.00 | 37 | 1010.7 |
| 20260504212025 | 25 | 229 | 6.4 | 20.9 | 0.00 | 0.00 | 0.00 | 37 | 1010.6 |
| 20260504211547 | 25 | 235 | 4.8 | 20.9 | 0.00 | 0.00 | 0.00 | 37 | 1010.6 |
| 20260504211025 | 25 | 215 | 9.7 | 24.1 | 0.00 | 0.00 | 0.00 | 37 | 1010.4 |
| 20260504210525 | 25 | 232 | 6.4 | 24.1 | 0.00 | 0.00 | 0.00 | 37 | 1010.6 |
| 20260504210041 | 25 | 229 | 9.7 | 24.1 | 0.00 | 0.00 | 0.00 | 37 | 1010.5 |
| 20260504205525 | 25 | 208 | 6.4 | 22.5 | 0.00 | 0.00 | 0.00 | 37 | 1010.5 |
| 20260504205024 | 25 | 317 | 8.0 | 17.7 | 0.00 | 0.00 | 0.00 | 37 | 1010.6 |
| 20260504204538 | 25 | 205 | 8.0 | 17.7 | 0.00 | 0.00 | 0.00 | 37 | 1010.5 |
| 20260504204024 | 25 | 267 | 6.4 | 19.3 | 0.00 | 0.00 | 0.00 | 37 | 1010.4 |
| 20260504203526 | 25 | 276 | 8.0 | 19.3 | 0.00 | 0.00 | 0.00 | 36 | 1010.4 |
| 20260504203048 | 25 | 266 | 4.8 | 17.7 | 0.00 | 0.00 | 0.00 | 37 | 1010.4 |
| 20260504202525 | 25 | 223 | 6.4 | 17.7 | 0.00 | 0.00 | 0.00 | 36 | 1010.4 |
| 20260504202024 | 25 | 254 | 6.4 | 17.7 | 0.00 | 0.00 | 0.00 | 37 | 1010.3 |
| 20260504201538 | 25 | 299 | 8.0 | 16.1 | 0.00 | 0.00 | 0.00 | 36 | 1010.4 |
| 20260504201024 | 25 | 252 | 6.4 | 24.1 | 0.00 | 0.00 | 0.00 | 37 | 1010.6 |
| 20260504200525 | 25 | 271 | 8.0 | 24.1 | 0.00 | 0.00 | 0.00 | 37 | 1010.4 |
| 20260504200036 | 25 | 227 | 6.4 | 16.1 | 0.00 | 0.00 | 0.00 | 37 | 1010.4 |
| 20260504195525 | 25 | 264 | 6.4 | 24.1 | 0.00 | 0.00 | 0.00 | 36 | 1010.5 |
| 20260504195024 | 25 | 215 | 6.4 | 24.1 | 0.00 | 0.00 | 0.00 | 37 | 1010.6 |
| 20260504194544 | 25 | 215 | 8.0 | 20.9 | 0.00 | 0.00 | 0.00 | 36 | 1010.6 |
| 20260504194024 | 25 | 291 | 4.8 | 19.3 | 0.00 | 0.00 | 0.00 | 36 | 1010.6 |
| 20260504193527 | 25 | 229 | 8.0 | 20.9 | 0.00 | 0.00 | 0.00 | 36 | 1010.7 |
| 20260504193039 | 25 | 240 | 9.7 | 20.9 | 0.00 | 0.00 | 0.00 | 36 | 1010.7 |
| 20260504192523 | 25 | 228 | 8.0 | 20.9 | 0.00 | 0.00 | 0.00 | 36 | 1010.7 |
| 20260504192026 | 26 | 277 | 11.3 | 22.5 | 0.00 | 0.00 | 0.00 | 36 | 1010.7 |
| 20260504191541 | 26 | 274 | 3.2 | 22.5 | 0.00 | 0.00 | 0.00 | 36 | 1010.6 |
| 20260504191024 | 25 | 215 | 8.0 | 22.5 | 0.00 | 0.00 | 0.00 | 36 | 1010.3 |
| 20260504190523 | 26 | 277 | 8.0 | 17.7 | 0.00 | 0.00 | 0.00 | 35 | 1010.3 |
| 20260504190039 | 26 | 278 | 8.0 | 17.7 | 0.00 | 0.00 | 0.00 | 36 | 1010.2 |
| 20260504185524 | 26 | 293 | 8.0 | 16.1 | 0.00 | 0.00 | 0.00 | 36 | 1010.2 |
| 20260504185028 | 26 | 228 | 3.2 | 16.1 | 0.00 | 0.00 | 0.00 | 35 | 1010.2 |
| 20260504184543 | 26 | 252 | 6.4 | 20.9 | 0.00 | 0.00 | 0.00 | 36 | 1010.2 |
| 20260504184028 | 25 | 222 | 4.8 | 20.9 | 0.00 | 0.00 | 0.00 | 36 | 1010.3 |
| 20260504183524 | 25 | 333 | 9.7 | 20.9 | 0.00 | 0.00 | 0.00 | 36 | 1010.6 |
| 20260504183043 | 25 | 282 | 3.2 | 22.5 | 0.00 | 0.00 | 0.00 | 36 | 1010.7 |
| 20260504182523 | 25 | 220 | 11.3 | 22.5 | 0.00 | 0.00 | 0.00 | 38 | 1010.8 |
| 20260504182025 | 25 | 225 | 6.4 | 20.9 | 0.00 | 0.00 | 0.00 | 38 | 1010.7 |
| 20260504181539 | 25 | 199 | 8.0 | 24.1 | 0.00 | 0.00 | 0.00 | 38 | 1010.6 |
| 20260504181027 | 25 | 195 | 4.8 | 25.7 | 0.00 | 0.00 | 0.00 | 39 | 1010.3 |
| 20260504180525 | 25 | 215 | 11.3 | 25.7 | 0.00 | 0.00 | 0.00 | 38 | 1010.7 |
| 20260504180046 | 25 | 209 | 8.0 | 22.5 | 0.00 | 0.00 | 0.00 | 38 | 1010.5 |
| 20260504175526 | 25 | 203 | 8.0 | 19.3 | 0.00 | 0.00 | 0.00 | 36 | 1010.4 |
| 20260504175025 | 25 | 202 | 6.4 | 19.3 | 0.00 | 0.00 | 0.00 | 36 | 1010.4 |
| 20260504174543 | 25 | 239 | 8.0 | 19.3 | 0.00 | 0.00 | 0.00 | 36 | 1010.6 |
| 20260504174024 | 25 | 237 | 8.0 | 19.3 | 0.00 | 0.00 | 0.00 | 37 | 1010.4 |
| 20260504173524 | 25 | 165 | 8.0 | 16.1 | 0.00 | 0.00 | 0.00 | 37 | 1010.6 |
| 20260504173040 | 25 | 221 | 4.8 | 25.7 | 0.00 | 0.00 | 0.00 | 37 | 1010.6 |
| 20260504172524 | 25 | 169 | 11.3 | 25.7 | 0.00 | 0.00 | 0.00 | 37 | 1010.6 |
| 20260504172024 | 25 | 217 | 8.0 | 24.1 | 0.00 | 0.00 | 0.00 | 37 | 1010.8 |
| 20260504171539 | 25 | 251 | 11.3 | 24.1 | 0.00 | 0.00 | 0.00 | 37 | 1011.0 |
| 20260504171024 | 25 | 254 | 8.0 | 22.5 | 0.00 | 0.00 | 0.00 | 37 | 1010.9 |
| 20260504170524 | 25 | 240 | 9.7 | 20.9 | 0.00 | 0.00 | 0.00 | 37 | 1010.9 |
| 20260504151024 | 22 | 182 | 4.8 | 14.5 | 0.00 | 0.00 | 0.00 | 45 | 1010.3 |
| 20260504150524 | 22 | 173 | 3.2 | 14.5 | 0.00 | 0.00 | 0.00 | 45 | 1010.2 |
| 20260504141024 | 21 | 213 | 8.0 | 19.3 | 0.00 | 0.00 | 0.00 | 48 | 1009.9 |
| 20260504140524 | 21 | 194 | 8.0 | 20.9 | 0.00 | 0.00 | 0.00 | 48 | 1010.0 |
| 20260504130524 | 21 | 184 | 1.6 | 9.7 | 0.00 | 0.00 | 0.00 | 45 | 1009.5 |
| 20260504110524 | 22 | 181 | 3.2 | 9.7 | 0.00 | 0.00 | 0.00 | 42 | 1008.9 |
| 20260504100524 | 22 | 0 | 0.0 | 3.2 | 0.00 | 0.00 | 0.00 | 43 | 1009.0 |
| 20260504081548 | 23 | 288 | 0.0 | 3.2 | 0.00 | 0.00 | 0.00 | 42 | 1008.7 |
| 20260504081029 | 23 | 0 | 0.0 | 3.2 | 0.00 | 0.00 | 0.00 | 43 | 1008.7 |
| 20260504080525 | 23 | 0 | 0.0 | 3.2 | 0.00 | 0.00 | 0.00 | 42 | 1008.7 |
| 20260504050526 | 26 | 223 | 16.1 | 38.6 | 0.00 | 0.00 | 0.00 | 29 | 1008.2 |
| 20260504045522 | 26 | 220 | 12.9 | 25.7 | 0.00 | 0.00 | 0.00 | 28 | 1008.3 |
| 20260504045024 | 26 | 248 | 11.3 | 30.6 | 0.00 | 0.00 | 0.00 | 28 | 1008.2 |
| 20260504044539 | 26 | 166 | 9.7 | 30.6 | 0.00 | 0.00 | 0.00 | 27 | 1008.2 |
| 20260504044025 | 26 | 219 | 11.3 | 30.6 | 0.00 | 0.00 | 0.00 | 27 | 1008.2 |
| 20260504043524 | 26 | 219 | 14.5 | 30.6 | 0.00 | 0.00 | 0.00 | 26 | 1008.2 |
| 20260504043042 | 26 | 232 | 12.9 | 27.4 | 0.00 | 0.00 | 0.00 | 26 | 1008.1 |
| 20260504042525 | 26 | 206 | 11.3 | 25.7 | 0.00 | 0.00 | 0.00 | 26 | 1008.0 |
| 20260504042024 | 26 | 199 | 14.5 | 25.7 | 0.00 | 0.00 | 0.00 | 25 | 1007.8 |
| 20260504041542 | 27 | 212 | 11.3 | 27.4 | 0.00 | 0.00 | 0.00 | 25 | 1007.9 |
| 20260504041024 | 27 | 202 | 12.9 | 30.6 | 0.00 | 0.00 | 0.00 | 25 | 1007.8 |
| 20260504040525 | 27 | 232 | 11.3 | 30.6 | 0.00 | 0.00 | 0.00 | 25 | 1007.7 |
| 20260504040107 | 27 | 200 | 11.3 | 29.0 | 0.00 | 0.00 | 0.00 | 24 | 1007.5 |
| 20260504035525 | 27 | 236 | 11.3 | 29.0 | 0.00 | 0.00 | 0.00 | 24 | 1007.5 |
| 20260504035025 | 27 | 197 | 9.7 | 29.0 | 0.00 | 0.00 | 0.00 | 24 | 1007.4 |
| 20260504034542 | 27 | 229 | 11.3 | 29.0 | 0.00 | 0.00 | 0.00 | 24 | 1007.2 |
| 20260504034024 | 27 | 205 | 11.3 | 24.1 | 0.00 | 0.00 | 0.00 | 23 | 1006.9 |
| 20260504033521 | 27 | 217 | 8.0 | 29.0 | 0.00 | 0.00 | 0.00 | 23 | 1006.9 |
| 20260504033038 | 28 | 219 | 11.3 | 29.0 | 0.00 | 0.00 | 0.00 | 22 | 1006.8 |
| 20260504032528 | 28 | 260 | 9.7 | 25.7 | 0.00 | 0.00 | 0.00 | 22 | 1006.7 |
| 20260504032027 | 28 | 206 | 9.7 | 25.7 | 0.00 | 0.00 | 0.00 | 21 | 1006.5 |
| 20260504031544 | 28 | 236 | 9.7 | 24.1 | 0.00 | 0.00 | 0.00 | 20 | 1006.5 |
| 20260504031024 | 28 | 211 | 9.7 | 22.5 | 0.00 | 0.00 | 0.00 | 20 | 1006.4 |
| 20260504030523 | 28 | 211 | 11.3 | 22.5 | 0.00 | 0.00 | 0.00 | 20 | 1006.3 |
| 20260504030041 | 28 | 202 | 9.7 | 22.5 | 0.00 | 0.00 | 0.00 | 20 | 1006.2 |
| 20260504025526 | 28 | 231 | 9.7 | 27.4 | 0.00 | 0.00 | 0.00 | 19 | 1006.0 |
| 20260504025024 | 29 | 240 | 11.3 | 27.4 | 0.00 | 0.00 | 0.00 | 19 | 1005.9 |
| 20260504024542 | 29 | 229 | 11.3 | 29.0 | 0.00 | 0.00 | 0.00 | 19 | 1005.9 |
| 20260504024025 | 29 | 229 | 11.3 | 29.0 | 0.00 | 0.00 | 0.00 | 19 | 1005.7 |
| 20260504023525 | 29 | 183 | 12.9 | 25.7 | 0.00 | 0.00 | 0.00 | 19 | 1005.7 |
| 20260504023037 | 30 | 205 | 14.5 | 25.7 | 0.00 | 0.00 | 0.00 | 19 | 1005.6 |
| 20260504022523 | 30 | 206 | 11.3 | 24.1 | 0.00 | 0.00 | 0.00 | 19 | 1005.5 |
| 20260504022021 | 30 | 215 | 12.9 | 35.4 | 0.00 | 0.00 | 0.00 | 18 | 1005.3 |
| 20260504021542 | 30 | 238 | 12.9 | 35.4 | 0.00 | 0.00 | 0.00 | 18 | 1005.5 |